ONEWEB-0007 (44060 NORAD) Tracking and Keplerian Element Data

This shows tracking and keplerian element data for the satellite.

Feedback or suggestion? Click here.




ElementValue
Catalog44060
NameONEWEB-0007
Epoch Orbit300
Epoch Day80.94904027
Epoch Year2019
RAAN65.6659
Inclination87.7722
Eccentricity0.001516
Argument of Perigee177.9747
Mean Anonmoly182.1478
Mean Motion13.70401846
Decay Rate7E-07
L11 44060U 19010D 19080.94904027 .00000070 00000-0 61501-4 0 9992
L22 44060 87.7722 65.6659 0015160 177.9747 182.1478 13.70401846 3009

Live tracking and technical data element details for ONEWEB-0007 (NORAD 44060). ONEWEB-0007 can be tracked NOW for your location showing map with azimuth and elevation plus other details from your city location.

Track the satellite on the map from your city or location and see movement details for azimuth, elevation, latitude, longitude, range, height, and movement on the map or in text.







IsCatalogInMostPopularTable: catalog: 44060, numindb: 39
Update: records affected: 1



GetName: 44060 ONEWEB-0007

Hit Count: updated at: Sat, 23 Mar 2019 00:48:42 GMT